This is the latest recevied weather packets stored in our database for station/object W3EJE-13. If no packets are shown the sender has not sent any weather packets the latest 10 day(s).
| Time | Temp. | Humidity | Pressure | Rain* | Wind** | Luminosity | Snow |
|---|---|---|---|---|---|---|---|
| 1777328070 | 18.89° C | 51% | 1022.5 hPa | 0 mm | - | 154 W/m² | - |
| 1777327768 | 19.44° C | 50% | 1022.3 hPa | 0 mm | - | 157 W/m² | - |
| 1777327465 | 18.89° C | 50% | 1022.4 hPa | 0 mm | - | 172 W/m² | - |
| 1777327162 | 19.44° C | 51% | 1022.6 hPa | 0 mm | - | 212 W/m² | - |
| 1777326860 | 19.44° C | 51% | 1022.4 hPa | 0 mm | - | 174 W/m² | - |
| 1777326556 | 19.44° C | 50% | 1022.4 hPa | 0 mm | - | 191 W/m² | - |
| 1777326254 | 20° C | 51% | 1022.4 hPa | 0 mm | - | 226 W/m² | - |
| 1777325951 | 20° C | 49% | 1022.4 hPa | 0 mm | - | 287 W/m² | - |
| 1777325649 | 20.56° C | 48% | 1022.2 hPa | 0 mm | - | 306 W/m² | - |
| 1777325347 | 20.56° C | 46% | 1022.2 hPa | 0 mm | - | 317 W/m² | - |
| 1777325045 | 21.11° C | 47% | 1022.3 hPa | 0 mm | - | 343 W/m² | - |
| 1777324741 | 21.11° C | 48% | 1022.3 hPa | 0 mm | - | 347 W/m² | - |
| 1777324439 | 21.67° C | 46% | 1022.3 hPa | 0 mm | - | 393 W/m² | - |
| 1777324136 | 20.56° C | 46% | 1022.1 hPa | 0 mm | - | 417 W/m² | - |
| 1777323834 | 20° C | 51% | 1022.3 hPa | 0 mm | - | 401 W/m² | - |
| 1777323531 | 20° C | 48% | 1022.2 hPa | 0 mm | - | 433 W/m² | - |
| 1777323228 | 20° C | 47% | 1022.3 hPa | 0 mm | - | 411 W/m² | - |
| 1777322925 | 21.11° C | 47% | 1022.1 hPa | 0 mm | - | 408 W/m² | - |
| 1777322624 | 20.56° C | 46% | 1022.2 hPa | 0 mm | - | 401 W/m² | - |
| 1777322321 | 20.56° C | 47% | 1022.4 hPa | 0 mm | - | 413 W/m² | - |
| 1777322018 | 20.56° C | 47% | 1022.2 hPa | 0 mm | - | 488 W/m² | - |
| 1777321714 | 20° C | 47% | 1022.3 hPa | 0 mm | - | 535 W/m² | - |
| 1777321411 | 20.56° C | 45% | 1022.4 hPa | 0 mm | - | 547 W/m² | - |
| 1777321108 | 20° C | 47% | 1022.6 hPa | 0 mm | - | 532 W/m² | - |
| 1777320806 | 20° C | 47% | 1022.5 hPa | 0 mm | - | 508 W/m² | - |
* Rain latest hour (hover to see other rain measurements)
** Current wind speed in m/s (hover to see current wind gust speed)